Weather History for EGMH - November, 2012

Change the Weather History Date:

Wednesday, November 7, 2012

  Actual Average Record
Temperature  
Mean Temperature 46 °F -  
Max Temperature 52 °F - - ()
Min Temperature 41 °F - - ()
Degree Days  
Heating Degree Days 18    
Moisture  
Dew Point 43 °F    
Average Humidity 85    
Maximum Humidity 100    
Minimum Humidity 74    
Precipitation  
Precipitation 0.00 in - - ()
Sea Level Pressure  
Sea Level Pressure 30.25 in    
Wind  
Wind Speed 9 mph ()    
Max Wind Speed 15 mph    
Max Gust Speed -    
Visibility 8.9 miles    
Events      
T = Trace of Precipitation, MM = Missing Value Source: Averaged Metar Reports

Daily Weather History Graph

Daily Weather History Graph

Search for Another Location

Airport or City:

Trip Planner

Search our weather history database for the weather conditions in past years. The results will help you decide how hot, cold, wet, or windy it might be!

Date:

Astronomy

Nov. 07, 2012 Rise Set
Actual Time 6:58 AM GMT 4:17 PM GMT
Civil Twilight 6:22 AM GMT 4:52 PM GMT
Nautical Twilight 5:43 AM GMT 5:32 PM GMT
Astronomical Twilight 5:04 AM GMT 6:11 PM GMT
Moon 11:58 PM GMT (11/7) 1:02 PM GMT (11/7)
Length of Visible Light 10h 30m
Length of Day
9h 18m
Last Quarter, 45% of the Moon is Illuminated
Nov 7
Last Quarter
Nov 13
New
Nov 20
First Quarter
Nov 28
Full
Dec 6
Last Quarter

Hourly Weather History & Observations

Time (GMT) Temp. Windchill Dew Point Humidity Pressure Visibility Wind Dir Wind Speed Gust Speed Precip Events Conditions
2:50 AM 48 °F - 46 °F 88% 30.22 in 14 mi West 15.0 mph - -   Mostly Cloudy
5:50 AM 43 °F - 43 °F 100% 30.25 in 10 mi West 10.4 mph - -  
7:20 AM 41.0 °F 37.1 °F 39.2 °F 93% 30.24 in - WSW 5.8 mph - N/A   Clear
7:50 AM 42.8 °F 38.0 °F 41.0 °F 93% 30.27 in - WSW 8.1 mph - N/A   Clear
8:20 AM 42.8 °F 37.5 °F 41.0 °F 93% 30.27 in - WSW 9.2 mph - N/A   Clear
8:50 AM 44 °F - 44 °F 100% 30.29 in 8 mi SW 11.5 mph - -  
8:50 AM 44.6 °F 39.7 °F 42.8 °F 93% 30.27 in - WSW 9.2 mph - N/A   Clear
9:20 AM 44.6 °F 39.7 °F 42.8 °F 93% 30.27 in - WSW 9.2 mph - N/A   Clear
9:50 AM 46.4 °F 42.4 °F 44.6 °F 93% 30.27 in - WSW 8.1 mph - N/A   Clear
10:20 AM 48.2 °F - 44.6 °F 87% 30.30 in - WSW 9.2 mph - N/A   Clear
10:50 AM 50.0 °F - 44.6 °F 82% 30.27 in 6.2 mi WSW 10.4 mph - N/A   Partly Cloudy
11:20 AM 50.0 °F - 44.6 °F 82% 30.27 in 6.2 mi WSW 8.1 mph - N/A   Partly Cloudy
11:50 AM 50 °F - 45 °F 77% 30.28 in 12 mi WSW 8.1 mph - -  
11:50 AM 50.0 °F - 44.6 °F 82% 30.27 in 6.2 mi WSW 9.2 mph - N/A   Partly Cloudy
12:20 PM 51.8 °F - 44.6 °F 76% 30.27 in 6.2 mi WSW 10.4 mph - N/A   Partly Cloudy
12:50 PM 51.8 °F - 44.6 °F 76% 30.24 in 6.2 mi WSW 12.7 mph - N/A   Partly Cloudy
1:20 PM 51.8 °F - 44.6 °F 76% 30.24 in 6.2 mi SW 11.5 mph - N/A   Partly Cloudy
1:50 PM 51.8 °F - 44.6 °F 76% 30.24 in 6.2 mi SW 11.5 mph - N/A   Partly Cloudy
2:20 PM 51.8 °F - 44.6 °F 76% 30.24 in 6.2 mi SW 10.4 mph - N/A   Partly Cloudy
2:50 PM 51 °F - 45 °F 74% 30.24 in 14 mi WSW 11.5 mph - -  
2:50 PM 50.0 °F - 44.6 °F 82% 30.24 in - SW 10.4 mph - N/A   Clear
3:20 PM 50.0 °F - 44.6 °F 82% 30.24 in - SW 9.2 mph - N/A   Clear
3:50 PM 48.2 °F - 42.8 °F 82% 30.21 in - WSW 10.4 mph - N/A   Clear
4:20 PM 46.4 °F 42.9 °F 42.8 °F 87% 30.21 in - SW 6.9 mph - N/A   Clear
4:50 PM 44.6 °F 40.7 °F 41.0 °F 87% 30.24 in - SW 6.9 mph - N/A   Clear
5:20 PM 46.4 °F 42.9 °F 42.8 °F 87% 30.24 in - SW 6.9 mph - N/A   Clear
5:50 PM 47 °F - 44 °F 83% 30.25 in 12 mi SW 13.8 mph - -   Mostly Cloudy
5:50 PM 46.4 °F 41.5 °F 42.8 °F 87% 30.24 in 6.2 mi SW 10.4 mph - N/A   Mostly Cloudy
8:20 PM 44.6 °F 39.2 °F 41.0 °F 87% 30.24 in - SW 10.4 mph - N/A   Clear
8:50 PM 45 °F - 42 °F 87% 30.25 in 19 mi SW 12.7 mph - -   Scattered Clouds
8:50 PM 44.6 °F 39.2 °F 41.0 °F 87% 30.24 in 6.2 mi SW 10.4 mph - N/A   Partly Cloudy
11:50 PM 47 °F - 42 °F 79% 30.20 in 25 mi SW 13.8 mph - -   Overcast